Kremmling, CO

11:17 PM MST on February 22, 2017 (GMT -0700)
Kremmling

Weather History for K20V - March, 2013

Change the Weather History Date:

Tuesday, March 5, 2013

  Actual Average Record
Temperature  
Mean Temperature 8 °F -  
Max Temperature 23 °F - 51 °F (2006)
Min Temperature -7 °F - -7 °F (2013)
Degree Days  
Heating Degree Days 57    
Month to date heating degree days  
Cooling Degree Days 0    
Month to date cooling degree days  
Moisture  
Dew Point -1 °F    
Average Humidity 69    
Maximum Humidity 85    
Minimum Humidity 46    
Precipitation  
Precipitation 0.00 in - 0.00 in (2017)
Sea Level Pressure  
Sea Level Pressure 30.29 in    
Wind  
Wind Speed 0 mph (ESE)    
Max Wind Speed 4 mph    
Max Gust Speed -    
T = Trace of Precipitation, MM = Missing Value Source: NWS Daily Summary

Daily Weather History Graph

Daily Weather History Graph

Search for Another Location

Airport or City:

Trip Planner

Search our weather history database for the weather conditions in past years. The results will help you decide how hot, cold, wet, or windy it might be!

Date:

Astronomy

Mar. 05, 2013 Rise Set
Actual Time 6:32 AM MST 6:02 PM MST
Civil Twilight 6:05 AM MST 6:29 PM MST
Nautical Twilight 5:33 AM MST 7:00 PM MST
Astronomical Twilight 5:02 AM MST 7:32 PM MST
Moon 1:47 AM MST (3/5) 11:44 AM MST (3/5)
Length of Visible Light 12h 23m
Length of Day
11h 29m
Last Quarter, 40% of the Moon is Illuminated
Mar 5
Last Quarter
Mar 11
New
Mar 19
First Quarter
Mar 27
Full
Apr 2
Last Quarter

Hourly Weather History & Observations

Time (MST) Temp. Windchill Dew Point Humidity Pressure Visibility Wind Dir Wind Speed Gust Speed Precip Events Conditions
12:10 AM 5.0 °F - -0.4 °F 78% 30.24 in - Calm Calm - N/A   Clear
12:36 AM 3.2 °F -4.2 °F -2.2 °F 78% 30.26 in - East 3.5 mph - N/A   Clear
12:56 AM 5.0 °F - -0.4 °F 78% 30.27 in - Calm Calm - N/A   Clear
1:16 AM 1.4 °F - -4.0 °F 78% 30.27 in - Calm Calm - N/A   Clear
1:36 AM 3.2 °F - -2.2 °F 78% 30.28 in - Calm Calm - N/A   Clear
1:56 AM 1.4 °F - -4.0 °F 78% 30.28 in - Calm Calm - N/A   Clear
2:16 AM -0.4 °F - -4.0 °F 85% 30.29 in - Calm Calm - N/A   Unknown
2:32 AM -0.4 °F - -5.8 °F 78% 30.29 in - Calm Calm - N/A   Clear
2:56 AM -0.4 °F - -5.8 °F 78% 30.30 in - Calm Calm - N/A   Clear
3:16 AM -0.4 °F - -5.8 °F 78% 30.31 in - Calm Calm - N/A   Unknown
3:36 AM -0.4 °F - -5.8 °F 78% 30.31 in - Calm Calm - N/A   Clear
3:56 AM -2.2 °F - -7.6 °F 78% 30.32 in - Calm Calm - N/A   Clear
4:13 AM -0.4 °F - -5.8 °F 78% 30.33 in - Calm Calm - N/A   Clear
4:33 AM -0.4 °F - -5.8 °F 78% 30.33 in - Calm Calm - N/A   Clear
4:55 AM -4.0 °F - -7.6 °F 85% 30.34 in - Calm Calm - N/A   Clear
5:16 AM -4.0 °F - -7.6 °F 85% 30.35 in - Calm Calm - N/A   Unknown
5:32 AM -5.8 °F - -9.4 °F 84% 30.36 in - Calm Calm - N/A   Unknown
6:10 AM -4.0 °F - -9.4 °F 78% 30.37 in - Calm Calm - N/A   Clear
6:34 AM -5.8 °F - -11.2 °F 77% 30.38 in - Calm Calm - N/A   Clear
6:51 AM -7.6 °F - -13.0 °F 77% 30.38 in - Calm Calm - N/A   Clear
7:16 AM -5.8 °F - -9.4 °F 84% 30.39 in - Calm Calm - N/A   Clear
7:36 AM -4.0 °F - -9.4 °F 78% 30.39 in - Calm Calm - N/A   Clear
7:54 AM -2.2 °F - -7.6 °F 78% 30.39 in - Calm Calm - N/A   Clear
8:13 AM -2.2 °F - -9.4 °F 71% 30.40 in - Calm Calm - N/A   Clear
8:30 AM -0.4 °F - -7.6 °F 72% 30.40 in - Calm Calm - N/A   Clear
8:56 AM 1.4 °F - -5.8 °F 72% 30.40 in - Calm Calm - N/A   Clear
9:16 AM 3.2 °F - -5.8 °F 66% 30.39 in - Calm Calm - N/A   Clear
9:30 AM 3.2 °F - -5.8 °F 66% 30.39 in - Calm Calm - N/A   Clear
9:56 AM 8.6 °F - -4.0 °F 57% 30.38 in - Calm Calm - N/A   Clear
10:16 AM 10.4 °F - -0.4 °F 62% 30.37 in - Calm Calm - N/A   Clear
10:36 AM 10.4 °F 4.0 °F -2.2 °F 57% 30.37 in - East 3.5 mph - N/A   Clear
10:55 AM 10.4 °F 4.0 °F -0.4 °F 62% 30.36 in - ESE 3.5 mph - N/A   Clear
11:16 AM 12.2 °F - -0.4 °F 57% 30.36 in - Calm Calm - N/A   Clear
11:30 AM 12.2 °F - -0.4 °F 57% 30.36 in - Calm Calm - N/A   Clear
11:54 AM 14.0 °F - 1.4 °F 57% 30.34 in - Calm Calm - N/A   Clear
12:16 PM 15.8 °F - 1.4 °F 53% 30.33 in - Calm Calm - N/A   Clear
12:27 PM 17.6 °F - 3.2 °F 53% 30.33 in - Calm Calm - N/A   Clear
12:53 PM 17.6 °F - 3.2 °F 53% 30.31 in - Calm Calm - N/A   Clear
1:10 PM 17.6 °F - 3.2 °F 53% 30.30 in - Calm Calm - N/A   Clear
1:36 PM 19.4 °F - 5.0 °F 54% 30.29 in - Calm Calm - N/A   Clear
1:56 PM 19.4 °F - 5.0 °F 54% 30.27 in - Calm Calm - N/A   Clear
2:15 PM 21.2 °F - 5.0 °F 50% 30.26 in - Calm Calm - N/A   Clear
2:32 PM 21.2 °F - 5.0 °F 50% 30.26 in - Calm Calm - N/A   Clear
2:56 PM 23.0 °F - 5.0 °F 46% 30.25 in - Calm Calm - N/A   Clear
3:16 PM 23.0 °F - 8.6 °F 54% 30.25 in - Calm Calm - N/A   Clear
3:36 PM 23.0 °F 18.4 °F 6.8 °F 50% 30.24 in - East 3.5 mph - N/A   Clear
3:55 PM 23.0 °F - 6.8 °F 50% 30.24 in - Calm Calm - N/A   Clear
4:16 PM 23.0 °F - 8.6 °F 54% 30.23 in - Calm Calm - N/A   Clear
4:36 PM 23.0 °F - 6.8 °F 50% 30.22 in - Calm Calm - N/A   Clear
4:48 PM 21.2 °F - 8.6 °F 58% 30.22 in - Calm Calm - N/A   Clear
5:16 PM 21.2 °F 16.4 °F 6.8 °F 54% 30.22 in - ESE 3.5 mph - N/A   Clear
5:36 PM 19.4 °F - 6.8 °F 58% 30.22 in - Calm Calm - N/A   Clear
5:51 PM 17.6 °F - 5.0 °F 58% 30.22 in - Calm Calm - N/A   Clear
6:16 PM 15.8 °F - 5.0 °F 62% 30.22 in - Calm Calm - N/A   Clear
6:36 PM 17.6 °F - 8.6 °F 68% 30.22 in - Calm Calm - N/A   Clear
6:56 PM 14.0 °F - 8.6 °F 79% 30.22 in - Calm Calm - N/A   Clear
7:16 PM 14.0 °F - 5.0 °F 67% 30.22 in - Calm Calm - N/A   Clear
7:34 PM 12.2 °F 6.1 °F 3.2 °F 67% 30.21 in - East 3.5 mph - N/A   Clear
7:55 PM 10.4 °F - 5.0 °F 79% 30.21 in - Calm Calm - N/A   Clear
8:14 PM 10.4 °F - 3.2 °F 73% 30.22 in - Calm Calm - N/A   Clear
8:36 PM 10.4 °F - 5.0 °F 79% 30.22 in - Calm Calm - N/A   Clear
8:56 PM 10.4 °F - 5.0 °F 79% 30.22 in - Calm Calm - N/A   Clear
9:14 PM 8.6 °F - 3.2 °F 79% 30.23 in - Calm Calm - N/A   Clear
9:36 PM 3.2 °F - -0.4 °F 85% 30.24 in - Calm Calm - N/A   Clear
9:56 PM 5.0 °F - 1.4 °F 85% 30.24 in - Calm Calm - N/A   Clear
10:11 PM 5.0 °F - 1.4 °F 85% 30.24 in - Calm Calm - N/A   Unknown
10:36 PM 3.2 °F - -0.4 °F 85% 30.24 in - Calm Calm - N/A   Unknown
10:53 PM 3.2 °F - -0.4 °F 85% 30.24 in - Calm Calm - N/A   Unknown
11:16 PM 3.2 °F - -0.4 °F 85% 30.24 in - Calm Calm - N/A   Unknown
11:31 PM 3.2 °F - -2.2 °F 78% 30.24 in - Calm Calm - N/A   Clear
11:54 PM 1.4 °F - -4.0 °F 78% 30.24 in - Calm Calm - N/A   Unknown